When you browse on this site, cookies collect data to enhance your experience and personalize the content and advertising you see.
Visit our Privacy Policy to learn more. By continuing to use the site, you agree to this use of cookies and data.
  • In Denmark
  • List of Countries
  • For 7 days
  • Water Temperature
  • Satellite Maps
  • Weather Map
  • Weather Widgets
  • user-avatar
    Login

    Hourly Weather Gaborone

    Today, 18 November, Sunday

    Time Temperature Precipitation Wind Pressure Humidity
    00:00 +31°C° 0 mm 1 mps 677 mmHg 20%
    01:00 +30°C° 0 mm 1 mps 677 mmHg 21%
    02:00 +29°C° 0 mm 1 mps 677 mmHg 25%
    03:00 +28°C° 0 mm 2 mps 677 mmHg 25%
    04:00 +28°C° 0 mm 2 mps 677 mmHg 26%
    05:00 +27°C° 0 mm 2 mps 677 mmHg 26%
    06:00 +29°C° 0 mm 3 mps 678 mmHg 24%
    07:00 +30°C° 0 mm 4 mps 678 mmHg 22%
    08:00 +32°C° 0 mm 6 mps 679 mmHg 22%
    09:00 +34°C° 0 mm 6 mps 679 mmHg 21%
    10:00 +36°C° 0 mm 6 mps 679 mmHg 19%
    11:00 +37°C° 0 mm 5 mps 679 mmHg 18%
    12:00 +39°C° 0 mm 5 mps 679 mmHg 16%
    13:00 +41°C° 0 mm 5 mps 678 mmHg 14%
    14:00 +41°C° 0 mm 4 mps 678 mmHg 13%
    15:00 +41°C° 0 mm 4 mps 677 mmHg 13%
    16:00 +41°C° 0 mm 5 mps 677 mmHg 13%
    17:00 +41°C° 0 mm 5 mps 676 mmHg 12%
    18:00 +39°C° 0 mm 5 mps 676 mmHg 14%
    19:00 +36°C° 0 mm 4 mps 677 mmHg 17%
    20:00 +35°C° 0 mm 4 mps 677 mmHg 19%
    21:00 +34°C° 0 mm 5 mps 677 mmHg 23%
    22:00 +32°C° 0 mm 5 mps 678 mmHg 27%
    23:00 +30°C° 0 mm 6 mps 678 mmHg 32%

    Tomorrow, 19 November, Monday

    Time Temperature Precipitation Wind Pressure Humidity
    00:00 +29°C° 0 mm 6 mps 678 mmHg 36%
    01:00 +28°C° 0 mm 6 mps 678 mmHg 40%
    02:00 +27°C° 0 mm 6 mps 678 mmHg 44%
    03:00 +27°C° 0 mm 6 mps 678 mmHg 45%
    04:00 +26°C° 0 mm 5 mps 678 mmHg 47%
    05:00 +26°C° 0 mm 5 mps 678 mmHg 49%
    06:00 +26°C° 0 mm 6 mps 678 mmHg 49%
    07:00 +27°C° 0 mm 7 mps 679 mmHg 49%
    08:00 +27°C° 0 mm 8 mps 679 mmHg 49%
    09:00 +29°C° 0 mm 8 mps 679 mmHg 45%
    10:00 +31°C° 0 mm 8 mps 680 mmHg 40%
    11:00 +33°C° 0 mm 8 mps 680 mmHg 36%
    12:00 +33°C° 0 mm 7 mps 679 mmHg 33%
    13:00 +34°C° 0 mm 7 mps 678 mmHg 30%
    14:00 +35°C° 0 mm 6 mps 678 mmHg 27%
    15:00 +35°C° 0 mm 6 mps 677 mmHg 25%
    16:00 +36°C° 0 mm 6 mps 677 mmHg 23%
    17:00 +36°C° 0 mm 5 mps 676 mmHg 21%
    18:00 +35°C° 0 mm 5 mps 676 mmHg 23%
    19:00 +33°C° 0 mm 4 mps 676 mmHg 26%
    20:00 +31°C° 0 mm 3 mps 676 mmHg 28%
    21:00 +30°C° 0.2 mm 4 mps 676 mmHg 32%
    22:00 +29°C° 0.2 mm 4 mps 676 mmHg 36%
    23:00 +28°C° 0.2 mm 4 mps 677 mmHg 39%

    Day after tomorrow, 20 November, Tuesday

    Time Temperature Precipitation Wind Pressure Humidity
    00:00 +28°C° 0 mm 4 mps 676 mmHg 41%
    01:00 +27°C° 0 mm 5 mps 676 mmHg 42%
    02:00 +27°C° 0 mm 5 mps 675 mmHg 43%
    03:00 +26°C° 0.1 mm 4 mps 675 mmHg 46%
    04:00 +25°C° 0.1 mm 4 mps 675 mmHg 49%
    05:00 +25°C° 0.1 mm 3 mps 675 mmHg 52%
    06:00 +26°C° 0 mm 4 mps 676 mmHg 49%
    07:00 +27°C° 0 mm 5 mps 677 mmHg 45%
    08:00 +28°C° 0 mm 6 mps 677 mmHg 41%
    09:00 +30°C° 0 mm 6 mps 678 mmHg 36%
    10:00 +33°C° 0 mm 5 mps 678 mmHg 31%
    11:00 +35°C° 0 mm 5 mps 678 mmHg 26%
    12:00 +36°C° 0 mm 5 mps 677 mmHg 24%
    13:00 +37°C° 0 mm 5 mps 676 mmHg 22%
    14:00 +38°C° 0 mm 4 mps 675 mmHg 21%
    15:00 +39°C° 0.1 mm 5 mps 675 mmHg 20%
    16:00 +39°C° 0.1 mm 5 mps 674 mmHg 19%
    17:00 +40°C° 0.1 mm 5 mps 673 mmHg 18%
    18:00 +35°C° 2.5 mm 5 mps 673 mmHg 31%
    19:00 +32°C° 2.5 mm 5 mps 673 mmHg 43%
    20:00 +27°C° 2.5 mm 4 mps 673 mmHg 55%
    21:00 +27°C° 0 mm 3 mps 674 mmHg 55%
    22:00 +27°C° 0 mm 2 mps 674 mmHg 54%
    23:00 +27°C° 0 mm 1 mps 675 mmHg 54%

    21 November, Wednesday

    Time Temperature Precipitation Wind Pressure Humidity
    00:00 +27°C° 0 mm 1 mps 675 mmHg 54%
    01:00 +26°C° 0 mm 1 mps 674 mmHg 53%
    02:00 +26°C° 0 mm 2 mps 674 mmHg 52%
    03:00 +25°C° 0 mm 2 mps 674 mmHg 49%
    04:00 +25°C° 0 mm 1 mps 673 mmHg 46%
    05:00 +24°C° 0 mm 1 mps 673 mmHg 44%
    06:00 +26°C° 0 mm 1 mps 674 mmHg 37%
    07:00 +28°C° 0 mm 2 mps 675 mmHg 31%
    08:00 +29°C° 0 mm 2 mps 676 mmHg 25%
    09:00 +31°C° 0 mm 2 mps 676 mmHg 20%
    10:00 +34°C° 0 mm 2 mps 676 mmHg 15%
    11:00 +36°C° 0 mm 3 mps 677 mmHg 10%
    12:00 +37°C° 0 mm 3 mps 676 mmHg 9%
    13:00 +40°C° 0 mm 4 mps 676 mmHg 8%
    14:00 +41°C° 0 mm 4 mps 675 mmHg 7%
    15:00 +41°C° 0 mm 4 mps 675 mmHg 7%
    16:00 +40°C° 0 mm 5 mps 674 mmHg 7%
    17:00 +40°C° 0 mm 5 mps 674 mmHg 8%
    18:00 +37°C° 0 mm 4 mps 674 mmHg 9%
    19:00 +35°C° 0 mm 3 mps 674 mmHg 11%
    20:00 +34°C° 0 mm 2 mps 675 mmHg 12%
    21:00 +32°C° 0 mm 2 mps 675 mmHg 13%
    22:00 +31°C° 0 mm 2 mps 675 mmHg 14%
    23:00 +30°C° 0 mm 1 mps 675 mmHg 15%

    22 November, Thursday

    Time Temperature Precipitation Wind Pressure Humidity
    00:00 +29°C° 0 mm 1 mps 674 mmHg 16%
    01:00 +28°C° 0 mm 1 mps 674 mmHg 17%
    02:00 +28°C° 0 mm 1 mps 673 mmHg 18%
    03:00 +27°C° 0 mm 1 mps 674 mmHg 19%
    04:00 +26°C° 0 mm 1 mps 674 mmHg 21%
    05:00 +26°C° 0 mm 1 mps 674 mmHg 22%
    06:00 +27°C° 0 mm 2 mps 675 mmHg 26%
    07:00 +28°C° 0 mm 4 mps 675 mmHg 29%
    08:00 +30°C° 0 mm 5 mps 676 mmHg 32%
    09:00 +32°C° 0 mm 6 mps 676 mmHg 32%
    10:00 +34°C° 0 mm 6 mps 676 mmHg 32%
    11:00 +35°C° 0 mm 6 mps 676 mmHg 31%
    12:00 +36°C° 0 mm 5 mps 676 mmHg 27%
    13:00 +38°C° 0 mm 4 mps 675 mmHg 23%
    14:00 +39°C° 0 mm 3 mps 675 mmHg 19%
    15:00 +38°C° 0.1 mm 3 mps 674 mmHg 19%
    16:00 +38°C° 0.1 mm 3 mps 674 mmHg 20%
    17:00 +38°C° 0.1 mm 3 mps 674 mmHg 21%
    18:00 +35°C° 0 mm 4 mps 674 mmHg 27%
    19:00 +33°C° 0 mm 5 mps 674 mmHg 34%
    20:00 +30°C° 0 mm 6 mps 674 mmHg 40%
    21:00 +29°C° 0 mm 5 mps 674 mmHg 39%
    22:00 +29°C° 0 mm 4 mps 674 mmHg 39%
    23:00 +29°C° 0 mm 3 mps 675 mmHg 38%

    23 November, Friday

    Time Temperature Precipitation Wind Pressure Humidity
    00:00 +28°C° 0.1 mm 3 mps 674 mmHg 41%
    01:00 +27°C° 0.1 mm 4 mps 674 mmHg 43%
    02:00 +27°C° 0.1 mm 4 mps 674 mmHg 46%
    03:00 +26°C° 0.1 mm 5 mps 674 mmHg 53%
    04:00 +25°C° 0.1 mm 5 mps 675 mmHg 59%
    05:00 +23°C° 0.1 mm 6 mps 675 mmHg 66%
    06:00 +24°C° 0 mm 6 mps 676 mmHg 65%
    07:00 +24°C° 0 mm 6 mps 676 mmHg 65%
    08:00 +26°C° 0 mm 6 mps 677 mmHg 64%
    09:00 +27°C° 0 mm 7 mps 677 mmHg 60%
    10:00 +28°C° 0 mm 7 mps 677 mmHg 57%
    11:00 +29°C° 0 mm 7 mps 678 mmHg 53%
    12:00 +29°C° 0.1 mm 7 mps 677 mmHg 52%
    13:00 +29°C° 0.1 mm 6 mps 677 mmHg 50%
    14:00 +29°C° 0.1 mm 5 mps 676 mmHg 49%
    15:00 +29°C° 0.4 mm 5 mps 676 mmHg 50%
    16:00 +29°C° 0.4 mm 4 mps 675 mmHg 51%
    17:00 +29°C° 0.4 mm 3 mps 675 mmHg 52%
    18:00 +28°C° 0.9 mm 3 mps 674 mmHg 55%
    19:00 +27°C° 0.9 mm 3 mps 674 mmHg 59%
    20:00 +26°C° 0.9 mm 3 mps 674 mmHg 63%
    21:00 +26°C° 0 mm 3 mps 675 mmHg 63%
    22:00 +25°C° 0 mm 3 mps 675 mmHg 64%
    23:00 +25°C° 0 mm 4 mps 676 mmHg 64%
    Show more